Hourly Weather Alleroy

Today, 27 February, Saturday

Time Temperature Precipitation Wind Pressure Humidity
00:00 +4°C° 0.2 mm 2 mps 735 mmHg 81%
01:00 +4°C° 0 mm 2 mps 735 mmHg 80%
02:00 +4°C° 0 mm 2 mps 735 mmHg 79%
03:00 +5°C° 0 mm 1 mps 734 mmHg 83%
04:00 +5°C° 0 mm 1 mps 734 mmHg 82%
05:00 +4°C° 0 mm 2 mps 734 mmHg 80%
06:00 +4°C° 0 mm 2 mps 734 mmHg 79%
07:00 +6°C° 0 mm 1 mps 734 mmHg 79%
08:00 +7°C° 0 mm 1 mps 733 mmHg 79%
09:00 +8°C° 0 mm 0 mps 733 mmHg 80%
10:00 +9°C° 0 mm 1 mps 733 mmHg 78%
11:00 +9°C° 0 mm 1 mps 733 mmHg 77%
12:00 +10°C° 0 mm 1 mps 732 mmHg 76%
13:00 +10°C° 0 mm 1 mps 732 mmHg 74%
14:00 +11°C° 0 mm 1 mps 731 mmHg 73%
15:00 +11°C° 0 mm 1 mps 731 mmHg 71%
16:00 +10°C° 0 mm 1 mps 731 mmHg 75%
17:00 +9°C° 0 mm 1 mps 731 mmHg 79%
18:00 +8°C° 0 mm 1 mps 731 mmHg 82%
19:00 +7°C° 0 mm 1 mps 731 mmHg 82%
20:00 +7°C° 0 mm 1 mps 731 mmHg 81%
21:00 +6°C° 0 mm 2 mps 731 mmHg 81%
22:00 +6°C° 0 mm 1 mps 731 mmHg 80%
23:00 +6°C° 0 mm 1 mps 730 mmHg 79%

Tomorrow, 28 February, Sunday

Time Temperature Precipitation Wind Pressure Humidity
00:00 +6°C° 0 mm 1 mps 730 mmHg 79%
01:00 +6°C° 0 mm 1 mps 730 mmHg 78%
02:00 +6°C° 0 mm 1 mps 730 mmHg 78%
03:00 +6°C° 0 mm 1 mps 729 mmHg 77%
04:00 +4°C° 0 mm 0 mps 730 mmHg 80%
05:00 +3°C° 0 mm 0 mps 730 mmHg 84%
06:00 +3°C° 0 mm 0 mps 730 mmHg 87%
07:00 +4°C° 0 mm 1 mps 730 mmHg 87%
08:00 +5°C° 0 mm 1 mps 730 mmHg 87%
09:00 +5°C° 0 mm 1 mps 730 mmHg 87%
10:00 +5°C° 0 mm 1 mps 729 mmHg 87%
11:00 +5°C° 0 mm 1 mps 729 mmHg 87%
12:00 +6°C° 0 mm 1 mps 729 mmHg 87%
13:00 +5°C° 0 mm 1 mps 729 mmHg 88%
14:00 +5°C° 0 mm 1 mps 729 mmHg 89%
15:00 +5°C° 0 mm 1 mps 729 mmHg 91%
16:00 +5°C° 0.2 mm 1 mps 729 mmHg 92%
17:00 +5°C° 0.2 mm 1 mps 730 mmHg 93%
18:00 +4°C° 0.2 mm 1 mps 730 mmHg 94%
19:00 +4°C° 0.3 mm 1 mps 730 mmHg 95%
20:00 +4°C° 0.3 mm 1 mps 731 mmHg 95%
21:00 +4°C° 0.3 mm 1 mps 731 mmHg 96%
22:00 +4°C° 0.4 mm 1 mps 731 mmHg 96%
23:00 +4°C° 0.4 mm 1 mps 732 mmHg 97%

Day after tomorrow, 1 March, Monday

Time Temperature Precipitation Wind Pressure Humidity
00:00 +4°C° 0.4 mm 1 mps 732 mmHg 97%
01:00 +3°C° 0.5 mm 1 mps 732 mmHg 98%
02:00 +3°C° 0.5 mm 1 mps 732 mmHg 98%
03:00 +3°C° 0.5 mm 1 mps 732 mmHg 98%
04:00 +3°C° 0.5 mm 1 mps 732 mmHg 98%
05:00 +3°C° 0.5 mm 1 mps 732 mmHg 98%
06:00 +2°C° 0.5 mm 2 mps 733 mmHg 98%
07:00 +3°C° 0.5 mm 1 mps 733 mmHg 97%
08:00 +3°C° 0.5 mm 1 mps 734 mmHg 97%
09:00 +3°C° 0.5 mm 1 mps 734 mmHg 96%
10:00 +3°C° 0.5 mm 1 mps 734 mmHg 96%
11:00 +3°C° 0.5 mm 1 mps 735 mmHg 96%
12:00 +3°C° 0.5 mm 1 mps 735 mmHg 95%
13:00 +3°C° 0.4 mm 1 mps 735 mmHg 94%
14:00 +3°C° 0.4 mm 1 mps 735 mmHg 93%
15:00 +3°C° 0.4 mm 1 mps 735 mmHg 92%
16:00 +3°C° 0.1 mm 1 mps 736 mmHg 93%
17:00 +2°C° 0.1 mm 1 mps 736 mmHg 94%
18:00 +2°C° 0.1 mm 1 mps 737 mmHg 95%
19:00 +2°C° 0 mm 1 mps 737 mmHg 93%
20:00 +1°C° 0 mm 1 mps 737 mmHg 91%
21:00 +1°C° 0 mm 1 mps 738 mmHg 89%
22:00 +1°C° 0 mm 1 mps 738 mmHg 87%
23:00 +1°C° 0 mm 1 mps 738 mmHg 86%

2 March, Tuesday

Time Temperature Precipitation Wind Pressure Humidity
00:00 0°C° 0 mm 1 mps 738 mmHg 84%
01:00 0°C° 0 mm 1 mps 738 mmHg 84%
02:00 0°C° 0 mm 1 mps 738 mmHg 84%
03:00 0°C° 0 mm 1 mps 738 mmHg 84%
04:00 0°C° 0 mm 1 mps 738 mmHg 84%
05:00 0°C° 0 mm 1 mps 738 mmHg 84%
06:00 0°C° 0 mm 1 mps 738 mmHg 84%
07:00 +1°C° 0 mm 1 mps 738 mmHg 81%
08:00 +2°C° 0 mm 1 mps 738 mmHg 77%
09:00 +4°C° 0 mm 1 mps 739 mmHg 74%
10:00 +4°C° 0 mm 1 mps 738 mmHg 70%
11:00 +5°C° 0 mm 1 mps 738 mmHg 67%
12:00 +5°C° 0 mm 2 mps 737 mmHg 64%
13:00 +6°C° 0 mm 1 mps 737 mmHg 62%
14:00 +7°C° 0 mm 1 mps 736 mmHg 61%
15:00 +7°C° 0 mm 1 mps 736 mmHg 59%
16:00 +6°C° 0 mm 1 mps 736 mmHg 62%
17:00 +5°C° 0 mm 1 mps 736 mmHg 65%
18:00 +3°C° 0 mm 0 mps 735 mmHg 68%
19:00 +4°C° 0 mm 1 mps 736 mmHg 71%
20:00 +3°C° 0 mm 1 mps 736 mmHg 73%
21:00 +2°C° 0 mm 2 mps 736 mmHg 75%
22:00 +1°C° 0 mm 2 mps 735 mmHg 76%
23:00 +1°C° 0 mm 2 mps 735 mmHg 77%

3 March, Wednesday

Time Temperature Precipitation Wind Pressure Humidity
00:00 +1°C° 0 mm 2 mps 735 mmHg 78%
01:00 +1°C° 0 mm 2 mps 734 mmHg 77%
02:00 +1°C° 0 mm 2 mps 734 mmHg 77%
03:00 +2°C° 0 mm 1 mps 734 mmHg 77%
04:00 +1°C° 0 mm 2 mps 734 mmHg 78%
05:00 +1°C° 0 mm 2 mps 733 mmHg 78%
06:00 +1°C° 0 mm 2 mps 733 mmHg 79%
07:00 +2°C° 0 mm 2 mps 733 mmHg 75%
08:00 +3°C° 0 mm 2 mps 733 mmHg 71%
09:00 +4°C° 0 mm 2 mps 733 mmHg 67%
10:00 +3°C° 0.1 mm 3 mps 733 mmHg 68%
11:00 +3°C° 0.1 mm 4 mps 733 mmHg 68%
12:00 +3°C° 0.1 mm 5 mps 733 mmHg 68%
13:00 +2°C° 0.3 mm 5 mps 733 mmHg 74%
14:00 +2°C° 0.3 mm 6 mps 733 mmHg 80%
15:00 +1°C° 0.3 mm 6 mps 733 mmHg 86%
16:00 +1°C° 0.4 mm 6 mps 733 mmHg 85%
17:00 +1°C° 0.4 mm 5 mps 733 mmHg 84%
18:00 +1°C° 0.4 mm 5 mps 734 mmHg 83%
19:00 0°C° 0.6 mm 5 mps 734 mmHg 87%
20:00 0°C° 0.6 mm 5 mps 735 mmHg 91%
21:00 0°C° 0.6 mm 4 mps 735 mmHg 94%
22:00 -1°C° 0.9 mm 4 mps 736 mmHg 92%
23:00 -1°C° 0.9 mm 4 mps 736 mmHg 90%

4 March, Thursday

Time Temperature Precipitation Wind Pressure Humidity
00:00 -1°C° 0.9 mm 4 mps 736 mmHg 88%
01:00 -1°C° 0.4 mm 4 mps 736 mmHg 88%
02:00 -1°C° 0.4 mm 5 mps 736 mmHg 89%
03:00 -1°C° 0.4 mm 5 mps 736 mmHg 90%
04:00 -1°C° 0.4 mm 4 mps 737 mmHg 89%
05:00 -2°C° 0.4 mm 4 mps 737 mmHg 89%
06:00 -2°C° 0.4 mm 4 mps 737 mmHg 89%
07:00 -1°C° 0.1 mm 4 mps 738 mmHg 83%
08:00 0°C° 0.1 mm 4 mps 738 mmHg 78%
09:00 0°C° 0.1 mm 4 mps 738 mmHg 72%
10:00 +1°C° 0 mm 4 mps 738 mmHg 68%
11:00 +3°C° 0 mm 3 mps 738 mmHg 64%
12:00 +4°C° 0 mm 3 mps 738 mmHg 60%
13:00 +6°C° 0 mm 2 mps 737 mmHg 58%
14:00 +6°C° 0 mm 2 mps 737 mmHg 56%
15:00 +6°C° 0 mm 2 mps 737 mmHg 54%
16:00 +6°C° 0 mm 1 mps 737 mmHg 57%
17:00 +5°C° 0 mm 1 mps 737 mmHg 60%
18:00 +4°C° 0 mm 1 mps 737 mmHg 63%
19:00 +3°C° 0 mm 1 mps 737 mmHg 64%
20:00 +3°C° 0 mm 1 mps 737 mmHg 65%
21:00 +1°C° 0 mm 2 mps 737 mmHg 66%
22:00 +1°C° 0 mm 2 mps 737 mmHg 65%
23:00 +1°C° 0 mm 2 mps 737 mmHg 65%
Show more

We Need Your Consent

Meteoprog and our Service Providers may store and access personal data such as cookies, device identifiers or other similar technologies on your device and process such data to personalise content and ads, as well as provide social media features and to analyse the traffic.

  • Store and/or access information on your device

    Cookies, device identifiers or other information can be stored or accessed on your device for the purposes indicated above.

  • Personalised ads and content, ad and content measurement, audience insights, and products development

    Ads and content can be personalised based on a profile. More data can be added to better personalise ads and content. Ad and content performance can be measured. Insights about the audience who saw the ads and content can be derived. Such data can be used to develop or improve user’s experience, systems and software.

By clicking ‘I Agree’ you will allow the use of indicated cookies, device identifiers, web beacons or other similar technologies. Your settings can be changed in the browser on your device.

For certain purposes, legitimate interests may be relied on, rather than consent. You can read more about this in our Privacy and Cookie Policy.